Back to catalog

STARLINK-37831

AliveCommunicationsSSO
NORAD 69489·PAYLOAD·🇺🇸 United States

Launched Jun 11, 2026 from Vandenberg Space Force Base

Loading…

Next Passes (next 24 hours)

TLE

FreshSource: CelesTrak SupGP

Epoch: Sep 15, 2026, 03:58 UTC

1 69489C 26131M   26258.16576389 -.00063370  00000+0 -19674-2 0  2584
2 69489  97.2833 279.1136 0001912 100.6265 143.9073 15.33466457    14

Track STARLINK-37831 in real time with AllMySat

Download on the App Store